User: anonymous   Login
Location: B?dargowo
(53.3916°N, 14.4413°E)
Time: 21:19:04
(UTC+00:00)
Language:

deb Kosmos-1168 - Orbit

View from above orbital plane
View from above orbital plane
View from above satellite
View from above satellite

Ground track
Ground track

The orbit data is extracted from the following two-line orbital elements,

1 12404U 80022C   24052.14032259  .00009689  00000-0  30805-2 0  9992
2 12404  82.9169 200.0567 0014546 208.5365 151.5032 14.39769511244369
Epoch (UTC): 21 February 2024 03:22:03
Eccentricity: 0.0014546
inclination: 82.9169°
perigee height: 749 km
apogee height: 769 km
right ascension of ascending node: 200.0567°
argument of perigee: 208.5365°
revolutions per day: 14.39769511
mean anomaly at epoch: 151.5032°
orbit number at epoch: 24436

The dashed part of the orbit path shows where the satellite is in the earth's shadow,  

DLR